IGO778 VOBL-VEBS

Flight info

Callsign IGO778
Flight time 1h 36m
Altitude 37000
Route ANIRO8A ANIRO W47 VVZ J26 ENVUK
Aircraft A20N/M-SDE2E3FGHIRWXY/LB1

Departure

Time 2026-05-06 17:55
Airport Kempegowda International Airport Bengaluru (VOBL)

Arrival

Time 2026-05-06 19:31
Airport Biju Patnaik International Airport (VEBS)
Time Latitude Longitude Altitude Speed Heading
2026-05-06 16:47 13.20167 77.70957 2958 ft 0 kts 181°
2026-05-06 16:52 13.20168 77.70957 2957 ft 0 kts 181°
2026-05-06 17:38 13.20177 77.70957 2942 ft 3 kts 181°
2026-05-06 17:39 13.20194 77.70958 2954 ft 3 kts 181°
2026-05-06 17:39 13.20212 77.70958 2946 ft 3 kts 181°
2026-05-06 17:39 13.20230 77.70956 2951 ft 3 kts 147°
2026-05-06 17:39 13.20243 77.70943 2947 ft 3 kts 111°
2026-05-06 17:40 13.20246 77.70932 2958 ft 0 kts 94°
2026-05-06 17:44 13.20245 77.70941 2957 ft 3 kts 94°
2026-05-06 17:45 13.20243 77.70972 2949 ft 6 kts 94°
2026-05-06 17:45 13.20242 77.71025 2943 ft 9 kts 90°
2026-05-06 17:45 13.20241 77.71099 2948 ft 11 kts 90°
2026-05-06 17:45 13.20254 77.71157 2945 ft 9 kts 47°
2026-05-06 17:46 13.20322 77.71176 2950 ft 11 kts
2026-05-06 17:46 13.20402 77.71178 2943 ft 12 kts
2026-05-06 17:46 13.20483 77.71178 2941 ft 8 kts 358°
2026-05-06 17:46 13.20520 77.71155 2950 ft 6 kts 292°
2026-05-06 17:47 13.20524 77.71114 2954 ft 5 kts 271°
2026-05-06 17:47 13.20525 77.71073 2954 ft 6 kts 271°
2026-05-06 17:47 13.20526 77.71019 2955 ft 11 kts 270°
2026-05-06 17:47 13.20526 77.70938 2957 ft 11 kts 270°
2026-05-06 17:48 13.20526 77.70863 2959 ft 10 kts 270°
2026-05-06 17:48 13.20528 77.70790 2961 ft 10 kts 271°
2026-05-06 17:48 13.20529 77.70717 2958 ft 10 kts 271°
2026-05-06 17:48 13.20530 77.70641 2959 ft 11 kts 271°
2026-05-06 17:49 13.20531 77.70564 2966 ft 11 kts 271°
2026-05-06 17:49 13.20531 77.70483 2968 ft 12 kts 270°
2026-05-06 17:49 13.20531 77.70400 2970 ft 12 kts 270°
2026-05-06 17:49 13.20532 77.70315 2972 ft 12 kts 270°
2026-05-06 17:50 13.20532 77.70229 2974 ft 12 kts 270°
2026-05-06 17:50 13.20533 77.70141 2976 ft 13 kts 270°
2026-05-06 17:50 13.20534 77.70050 2978 ft 13 kts 270°
2026-05-06 17:50 13.20535 77.69955 2980 ft 14 kts 270°
2026-05-06 17:51 13.20535 77.69857 2982 ft 14 kts 270°
2026-05-06 17:51 13.20536 77.69756 2984 ft 14 kts 270°
2026-05-06 17:51 13.20537 77.69653 2986 ft 15 kts 270°
2026-05-06 17:51 13.20538 77.69547 2988 ft 15 kts 270°
2026-05-06 17:52 13.20539 77.69437 2991 ft 16 kts 270°
2026-05-06 17:52 13.20539 77.69322 2993 ft 16 kts 270°
2026-05-06 17:52 13.20541 77.69207 2996 ft 16 kts 272°
2026-05-06 17:52 13.20544 77.69089 2998 ft 17 kts 271°
2026-05-06 17:53 13.20545 77.68969 3001 ft 17 kts 270°
2026-05-06 17:53 13.20545 77.68846 3004 ft 17 kts 270°
2026-05-06 17:53 13.20547 77.68724 3007 ft 17 kts 271°
2026-05-06 17:53 13.20578 77.68632 3009 ft 13 kts 335°
2026-05-06 17:54 13.20670 77.68630 3010 ft 14 kts 12°
2026-05-06 17:54 13.20716 77.68684 3008 ft 1 kts 91°
2026-05-06 17:54 13.20716 77.68702 3008 ft 4 kts 91°
2026-05-06 17:54 13.20714 77.68874 3004 ft 56 kts 90°
2026-05-06 17:55 13.20711 77.69482 2991 ft 114 kts 90°
2026-05-06 17:55 13.20690 77.70476 2969 ft 159 kts 90°
2026-05-06 17:55 13.20688 77.71701 3192 ft 179 kts 90°
2026-05-06 17:55 13.20753 77.72914 4019 ft 172 kts 90°
2026-05-06 17:56 13.20803 77.74206 4313 ft 191 kts 91°
2026-05-06 17:56 13.20777 77.75645 4449 ft 212 kts 94°
2026-05-06 17:56 13.20724 77.77216 4670 ft 231 kts 94°
2026-05-06 17:56 13.20672 77.78929 4990 ft 251 kts 92°
2026-05-06 17:57 13.20627 77.80775 5498 ft 263 kts 92°
2026-05-06 17:57 13.20594 77.82674 6174 ft 269 kts 91°
2026-05-06 17:57 13.20570 77.84587 6760 ft 275 kts 90°
2026-05-06 17:57 13.20551 77.86552 6941 ft 276 kts 90°
2026-05-06 17:58 13.20546 77.88519 6983 ft 276 kts 86°
2026-05-06 17:58 13.20937 77.90433 6986 ft 275 kts 68°
2026-05-06 17:58 13.21907 77.92112 6998 ft 275 kts 50°
2026-05-06 17:58 13.23353 77.93371 7266 ft 280 kts 31°
2026-05-06 17:59 13.25111 77.94286 8011 ft 281 kts 27°
2026-05-06 17:59 13.26868 77.95194 8678 ft 285 kts 27°
2026-05-06 17:59 13.28639 77.96119 8913 ft 285 kts 28°
2026-05-06 17:59 13.30404 77.97042 9032 ft 287 kts 28°
2026-05-06 18:00 13.32188 77.97973 9754 ft 287 kts 27°
2026-05-06 18:00 13.33972 77.98903 10400 ft 289 kts 27°
2026-05-06 18:00 13.35760 77.99832 11022 ft 292 kts 27°
2026-05-06 18:00 13.37583 78.00778 11647 ft 295 kts 26°
2026-05-06 18:01 13.39417 78.01728 12254 ft 298 kts 26°
2026-05-06 18:01 13.41276 78.02694 12885 ft 300 kts 26°
2026-05-06 18:01 13.43155 78.03666 13505 ft 303 kts 26°
2026-05-06 18:01 13.45049 78.04642 14074 ft 306 kts 25°
2026-05-06 18:02 13.46966 78.05633 14591 ft 310 kts 25°
2026-05-06 18:02 13.48901 78.06636 15064 ft 313 kts 25°
2026-05-06 18:02 13.50835 78.07640 14873 ft 311 kts 25°
2026-05-06 18:02 13.52770 78.08643 14532 ft 310 kts 25°
2026-05-06 18:03 13.54669 78.09692 14422 ft 313 kts 31°
2026-05-06 18:03 13.56415 78.11039 14944 ft 316 kts 40°
2026-05-06 18:03 13.57990 78.12633 15462 ft 320 kts 44°
2026-05-06 18:03 13.59557 78.14280 15949 ft 324 kts 44°
2026-05-06 18:04 13.61141 78.15944 16428 ft 328 kts 44°
2026-05-06 18:04 13.62729 78.17617 16895 ft 332 kts 44°
2026-05-06 18:04 13.62902 78.17799 16951 ft 333 kts 44°
2026-05-06 18:04 13.63342 78.18261 17069 ft 334 kts 44°
2026-05-06 18:05 13.64975 78.19981 17542 ft 338 kts 44°
2026-05-06 18:05 13.66627 78.21726 18000 ft 342 kts 44°
2026-05-06 18:05 13.68297 78.23494 18433 ft 346 kts 44°
2026-05-06 18:05 13.69983 78.25276 18849 ft 349 kts 44°
2026-05-06 18:06 13.71680 78.27067 19264 ft 351 kts 44°
2026-05-06 18:06 13.73390 78.28873 19671 ft 354 kts 44°
2026-05-06 18:06 13.75115 78.30697 20085 ft 356 kts 44°
2026-05-06 18:06 13.76850 78.32528 20486 ft 359 kts 44°
2026-05-06 18:07 13.78594 78.34369 20877 ft 361 kts 44°
2026-05-06 18:07 13.80355 78.36226 21247 ft 363 kts 44°
2026-05-06 18:07 13.82125 78.38095 21636 ft 366 kts 44°
2026-05-06 18:07 13.83909 78.39980 22015 ft 368 kts 44°
2026-05-06 18:08 13.85706 78.41877 22391 ft 371 kts 44°
2026-05-06 18:08 13.87511 78.43782 22755 ft 373 kts 44°
2026-05-06 18:08 13.89329 78.45704 23127 ft 375 kts 44°
2026-05-06 18:08 13.91155 78.47636 23471 ft 378 kts 44°
2026-05-06 18:09 13.92993 78.49584 23764 ft 380 kts 44°
2026-05-06 18:09 13.93145 78.49746 23786 ft 380 kts 44°
2026-05-06 18:09 13.94942 78.51654 24067 ft 382 kts 44°
2026-05-06 18:09 13.96799 78.53623 24365 ft 384 kts 44°
2026-05-06 18:10 13.98662 78.55594 24669 ft 385 kts 44°
2026-05-06 18:10 14.00536 78.57576 24958 ft 387 kts 44°
2026-05-06 18:10 14.02414 78.59562 25255 ft 389 kts 44°
2026-05-06 18:10 14.04308 78.61573 25555 ft 391 kts 45°
2026-05-06 18:11 14.06188 78.63594 25854 ft 392 kts 45°
2026-05-06 18:11 14.07437 78.64940 26044 ft 394 kts 45°
2026-05-06 18:11 14.10000 78.67644 26430 ft 396 kts 45°
2026-05-06 18:11 14.11914 78.69702 26732 ft 398 kts 45°
2026-05-06 18:12 14.13882 78.71717 27012 ft 398 kts 37°
2026-05-06 18:12 14.16152 78.73334 27302 ft 399 kts 31°
2026-05-06 18:12 14.18479 78.74900 27579 ft 400 kts 32°
2026-05-06 18:12 14.20821 78.76468 27858 ft 402 kts 31°
2026-05-06 18:13 14.23171 78.78040 28140 ft 404 kts 31°
2026-05-06 18:13 14.25533 78.79619 28442 ft 406 kts 31°
2026-05-06 18:13 14.27905 78.81201 28730 ft 407 kts 31°
2026-05-06 18:13 14.30246 78.82883 29024 ft 410 kts 38°
2026-05-06 18:14 14.32431 78.84782 29306 ft 412 kts 39°
2026-05-06 18:14 14.34620 78.86703 29593 ft 414 kts 39°
2026-05-06 18:14 14.36817 78.88631 29881 ft 415 kts 39°
2026-05-06 18:14 14.38993 78.90537 30117 ft 417 kts 39°
2026-05-06 18:15 14.41212 78.92480 30346 ft 419 kts 39°
2026-05-06 18:15 14.43452 78.94441 30464 ft 425 kts 39°
2026-05-06 18:15 14.45714 78.96422 30575 ft 430 kts 39°
2026-05-06 18:15 14.48011 78.98436 30695 ft 435 kts 39°
2026-05-06 18:16 14.50329 79.00469 30808 ft 440 kts 39°
2026-05-06 18:16 14.52673 79.02525 30924 ft 445 kts 39°
2026-05-06 18:16 14.55043 79.04605 31041 ft 450 kts 40°
2026-05-06 18:16 14.57441 79.06711 31156 ft 455 kts 40°
2026-05-06 18:17 14.59868 79.08842 31274 ft 460 kts 40°
2026-05-06 18:17 14.62282 79.10966 31395 ft 465 kts 40°
2026-05-06 18:17 14.64799 79.13180 31507 ft 469 kts 40°
2026-05-06 18:17 14.67294 79.15375 31639 ft 474 kts 40°
2026-05-06 18:18 14.69814 79.17585 31751 ft 478 kts 40°
2026-05-06 18:18 14.72358 79.19816 31942 ft 480 kts 40°
2026-05-06 18:18 14.74874 79.22024 32191 ft 481 kts 40°
2026-05-06 18:18 14.77422 79.24266 32483 ft 481 kts 40°
2026-05-06 18:19 14.79969 79.26511 32774 ft 481 kts 40°
2026-05-06 18:19 14.82487 79.28730 33084 ft 481 kts 40°
2026-05-06 18:19 14.85047 79.30983 33396 ft 480 kts 40°
2026-05-06 18:19 14.87595 79.33226 33723 ft 480 kts 40°
2026-05-06 18:20 14.90134 79.35467 34002 ft 480 kts 40°
2026-05-06 18:20 14.92672 79.37712 34281 ft 479 kts 40°
2026-05-06 18:20 14.95163 79.39916 34553 ft 479 kts 40°
2026-05-06 18:20 14.97720 79.42178 34838 ft 478 kts 40°
2026-05-06 18:21 15.00236 79.44414 35111 ft 477 kts 40°
2026-05-06 18:21 15.02751 79.46664 35386 ft 476 kts 41°
2026-05-06 18:21 15.05243 79.48904 35643 ft 476 kts 41°
2026-05-06 18:21 15.07748 79.51156 35903 ft 475 kts 41°
2026-05-06 18:22 15.10241 79.53400 36152 ft 475 kts 41°
2026-05-06 18:22 15.12730 79.55641 36417 ft 474 kts 41°
2026-05-06 18:22 15.14375 79.57121 36583 ft 473 kts 41°
2026-05-06 18:22 15.16857 79.59355 36797 ft 473 kts 41°
2026-05-06 18:23 15.21831 79.63826 36864 ft 473 kts 41°
2026-05-06 18:23 15.26789 79.68286 36861 ft 472 kts 41°
2026-05-06 18:24 15.31757 79.72760 36857 ft 473 kts 40°
2026-05-06 18:24 15.36725 79.77225 36862 ft 473 kts 40°
2026-05-06 18:25 15.41683 79.81696 36865 ft 473 kts 40°
2026-05-06 18:25 15.46648 79.86172 36859 ft 473 kts 40°
2026-05-06 18:26 15.51586 79.90625 36862 ft 473 kts 40°
2026-05-06 18:26 15.56553 79.95117 36860 ft 474 kts 40°
2026-05-06 18:27 15.61518 79.99613 36856 ft 473 kts 40°
2026-05-06 18:27 15.66485 80.04109 36861 ft 474 kts 40°
2026-05-06 18:28 15.71450 80.08603 36857 ft 474 kts 40°
2026-05-06 18:28 15.76422 80.13099 36861 ft 474 kts 40°
2026-05-06 18:29 15.81395 80.17599 36860 ft 474 kts 40°
2026-05-06 18:29 15.86341 80.22082 36854 ft 474 kts 40°
2026-05-06 18:30 15.91312 80.26596 36857 ft 475 kts 40°
2026-05-06 18:30 15.96285 80.31114 36852 ft 475 kts 40°
2026-05-06 18:31 16.01266 80.35641 36852 ft 475 kts 40°
2026-05-06 18:31 16.06245 80.40167 36845 ft 475 kts 40°
2026-05-06 18:32 16.11223 80.44700 36844 ft 475 kts 40°
2026-05-06 18:32 16.16164 80.49209 36840 ft 475 kts 40°
2026-05-06 18:33 16.21150 80.53753 36837 ft 476 kts 40°
2026-05-06 18:33 16.26125 80.58281 36835 ft 476 kts 40°
2026-05-06 18:34 16.31110 80.62827 36833 ft 476 kts 40°
2026-05-06 18:34 16.36096 80.67378 36835 ft 476 kts 40°
2026-05-06 18:35 16.41041 80.71901 36828 ft 476 kts 40°
2026-05-06 18:35 16.46019 80.76456 36825 ft 476 kts 40°
2026-05-06 18:36 16.51001 80.81019 36826 ft 476 kts 41°
2026-05-06 18:36 16.55134 80.86394 36826 ft 478 kts 62°
2026-05-06 18:37 16.58103 80.92591 36827 ft 479 kts 63°
2026-05-06 18:37 16.61078 80.98811 36829 ft 479 kts 63°
2026-05-06 18:38 16.64061 81.05026 36831 ft 479 kts 63°
2026-05-06 18:38 16.67049 81.11254 36829 ft 479 kts 63°
2026-05-06 18:39 16.70023 81.17482 36830 ft 480 kts 63°
2026-05-06 18:40 16.74474 81.26829 36832 ft 480 kts 63°
2026-05-06 18:40 16.77430 81.33034 36836 ft 480 kts 63°
2026-05-06 18:41 16.80398 81.39270 36836 ft 480 kts 63°
2026-05-06 18:41 16.83377 81.45522 36838 ft 480 kts 63°
2026-05-06 18:42 16.86348 81.51775 36838 ft 480 kts 63°
2026-05-06 18:42 16.89316 81.58028 36842 ft 481 kts 63°
2026-05-06 18:43 16.92276 81.64277 36842 ft 481 kts 63°
2026-05-06 18:43 16.95221 81.70481 36845 ft 481 kts 63°
2026-05-06 18:44 16.98211 81.76785 36848 ft 481 kts 63°
2026-05-06 18:44 17.01148 81.83005 36847 ft 480 kts 63°
2026-05-06 18:45 17.04095 81.89255 36847 ft 480 kts 63°
2026-05-06 18:45 17.07064 81.95535 36851 ft 481 kts 63°
2026-05-06 18:46 17.10023 82.01801 36854 ft 481 kts 63°
2026-05-06 18:46 17.12976 82.08074 36857 ft 481 kts 63°
2026-05-06 18:47 17.15907 82.14317 36857 ft 481 kts 63°
2026-05-06 18:47 17.18831 82.20602 36857 ft 481 kts 64°
2026-05-06 18:48 17.21741 82.26903 36859 ft 481 kts 64°
2026-05-06 18:48 17.24642 82.33195 36860 ft 480 kts 64°
2026-05-06 18:49 17.27545 82.39488 36864 ft 480 kts 64°
2026-05-06 18:49 17.30457 82.45787 36861 ft 480 kts 64°
2026-05-06 18:50 17.33364 82.52080 36867 ft 480 kts 64°
2026-05-06 18:50 17.36267 82.58377 36863 ft 480 kts 64°
2026-05-06 18:51 17.39164 82.64679 36866 ft 480 kts 64°
2026-05-06 18:51 17.42063 82.70995 36864 ft 480 kts 64°
2026-05-06 18:52 17.44948 82.77296 36866 ft 480 kts 64°
2026-05-06 18:52 17.47839 82.83610 36865 ft 480 kts 64°
2026-05-06 18:53 17.50718 82.89870 36864 ft 481 kts 64°
2026-05-06 18:53 17.53636 82.96217 36865 ft 481 kts 64°
2026-05-06 18:54 17.56506 83.02504 36867 ft 481 kts 64°
2026-05-06 18:54 17.59384 83.08821 36866 ft 481 kts 64°
2026-05-06 18:55 17.62268 83.15143 36867 ft 481 kts 64°
2026-05-06 18:55 17.65182 83.21465 36865 ft 481 kts 60°
2026-05-06 18:55 17.67034 83.24373 36866 ft 480 kts 49°
2026-05-06 18:56 17.69350 83.26880 36865 ft 478 kts 38°
2026-05-06 18:56 17.74779 83.30879 36866 ft 477 kts 32°
2026-05-06 18:57 17.80281 83.34770 36866 ft 477 kts 32°
2026-05-06 18:57 17.85784 83.38676 36867 ft 477 kts 32°
2026-05-06 18:58 17.91291 83.42595 36869 ft 478 kts 32°
2026-05-06 18:58 17.96796 83.46511 36869 ft 478 kts 32°
2026-05-06 18:59 18.02303 83.50432 36869 ft 478 kts 32°
2026-05-06 18:59 18.07814 83.54358 36868 ft 479 kts 32°
2026-05-06 19:00 18.13289 83.58264 36865 ft 479 kts 32°
2026-05-06 19:00 18.18806 83.62200 36860 ft 479 kts 32°
2026-05-06 19:01 18.24329 83.66140 36863 ft 480 kts 32°
2026-05-06 19:01 18.29856 83.70088 36861 ft 480 kts 32°
2026-05-06 19:02 18.35391 83.74044 36863 ft 480 kts 32°
2026-05-06 19:02 18.40913 83.77999 36864 ft 480 kts 32°
2026-05-06 19:03 18.46444 83.81963 36862 ft 480 kts 32°
2026-05-06 19:03 18.51956 83.85944 36862 ft 481 kts 36°
2026-05-06 19:04 18.56952 83.90591 36864 ft 482 kts 41°
2026-05-06 19:04 18.61915 83.95353 36860 ft 483 kts 41°
2026-05-06 19:05 18.66887 84.00121 36862 ft 483 kts 41°
2026-05-06 19:05 18.71863 84.04887 36865 ft 483 kts 41°
2026-05-06 19:06 18.76841 84.09663 36711 ft 482 kts 41°
2026-05-06 19:06 18.79319 84.12040 36121 ft 482 kts 41°
2026-05-06 19:06 18.81803 84.14426 35495 ft 485 kts 41°
2026-05-06 19:06 18.84308 84.16831 34829 ft 487 kts 40°
2026-05-06 19:07 18.86820 84.19242 34174 ft 490 kts 40°
2026-05-06 19:07 18.88495 84.20849 33715 ft 492 kts 40°
2026-05-06 19:07 18.91904 84.24121 32710 ft 496 kts 40°
2026-05-06 19:07 18.94460 84.26577 32111 ft 495 kts 40°
2026-05-06 19:08 18.96959 84.28982 31619 ft 492 kts 40°
2026-05-06 19:08 18.99484 84.31413 31122 ft 489 kts 40°
2026-05-06 19:08 19.01990 84.33827 30632 ft 487 kts 40°
2026-05-06 19:08 19.04493 84.36241 30137 ft 484 kts 40°
2026-05-06 19:09 19.06969 84.38635 29592 ft 482 kts 40°
2026-05-06 19:09 19.09436 84.41023 29066 ft 478 kts 40°
2026-05-06 19:09 19.11877 84.43380 28521 ft 475 kts 40°
2026-05-06 19:09 19.14241 84.45664 28044 ft 471 kts 40°
2026-05-06 19:10 19.16643 84.47984 27556 ft 467 kts 40°
2026-05-06 19:10 19.19033 84.50292 27074 ft 463 kts 40°
2026-05-06 19:10 19.20606 84.51810 26754 ft 461 kts 40°
2026-05-06 19:10 19.23759 84.54855 26134 ft 456 kts 40°
2026-05-06 19:11 19.25312 84.56359 25844 ft 454 kts 40°
2026-05-06 19:11 19.27635 84.58607 25406 ft 450 kts 40°
2026-05-06 19:11 19.29935 84.60838 24977 ft 447 kts 40°
2026-05-06 19:11 19.32957 84.63768 24433 ft 443 kts 40°
2026-05-06 19:12 19.34492 84.65255 24157 ft 441 kts 40°
2026-05-06 19:12 19.36745 84.67437 23763 ft 438 kts 40°
2026-05-06 19:12 19.38987 84.69611 23371 ft 436 kts 40°
2026-05-06 19:12 19.41221 84.71776 22908 ft 433 kts 40°
2026-05-06 19:13 19.43412 84.73897 22461 ft 429 kts 40°
2026-05-06 19:13 19.45604 84.76021 21999 ft 426 kts 40°
2026-05-06 19:13 19.47780 84.78134 21541 ft 423 kts 40°
2026-05-06 19:13 19.49942 84.80235 21103 ft 420 kts 40°
2026-05-06 19:14 19.52087 84.82318 20665 ft 417 kts 40°
2026-05-06 19:14 19.54216 84.84387 20227 ft 413 kts 41°
2026-05-06 19:14 19.56329 84.86443 19790 ft 410 kts 41°
2026-05-06 19:14 19.58427 84.88485 19378 ft 407 kts 41°
2026-05-06 19:15 19.60497 84.90506 18949 ft 404 kts 41°
2026-05-06 19:15 19.62557 84.92516 18535 ft 401 kts 41°
2026-05-06 19:15 19.64611 84.94513 18119 ft 398 kts 41°
2026-05-06 19:15 19.66642 84.96488 17675 ft 395 kts 41°
2026-05-06 19:16 19.68653 84.98444 17249 ft 391 kts 41°
2026-05-06 19:16 19.70646 85.00385 16826 ft 386 kts 41°
2026-05-06 19:16 19.72616 85.02305 16411 ft 382 kts 41°
2026-05-06 19:16 19.74569 85.04210 15997 ft 378 kts 41°
2026-05-06 19:17 19.76490 85.06086 15706 ft 371 kts 41°
2026-05-06 19:17 19.78336 85.07893 15575 ft 360 kts 41°
2026-05-06 19:17 19.80173 85.09692 15459 ft 349 kts 41°
2026-05-06 19:17 19.81931 85.11411 15302 ft 340 kts 41°
2026-05-06 19:18 19.83645 85.13085 15041 ft 336 kts 41°
2026-05-06 19:18 19.85362 85.14762 14752 ft 333 kts 41°
2026-05-06 19:18 19.87064 85.16426 14462 ft 331 kts 41°
2026-05-06 19:18 19.88752 85.18075 14157 ft 328 kts 41°
2026-05-06 19:19 19.90424 85.19710 13856 ft 326 kts 41°
2026-05-06 19:19 19.92085 85.21336 13547 ft 324 kts 41°
2026-05-06 19:19 19.93736 85.22955 13245 ft 321 kts 41°
2026-05-06 19:19 19.95377 85.24565 12915 ft 319 kts 41°
2026-05-06 19:20 19.97004 85.26160 12610 ft 317 kts 41°
2026-05-06 19:20 19.98616 85.27737 12307 ft 315 kts 41°
2026-05-06 19:20 20.00228 85.29314 11985 ft 313 kts 41°
2026-05-06 19:20 20.01827 85.30881 11671 ft 311 kts 41°
2026-05-06 19:21 20.03416 85.32440 11351 ft 310 kts 41°
2026-05-06 19:21 20.04994 85.33990 11042 ft 308 kts 41°
2026-05-06 19:21 20.06560 85.35532 10734 ft 306 kts 41°
2026-05-06 19:21 20.08115 85.37061 10442 ft 304 kts 41°
2026-05-06 19:22 20.09666 85.38583 10142 ft 302 kts 41°
2026-05-06 19:22 20.11206 85.40092 9850 ft 300 kts 41°
2026-05-06 19:22 20.12742 85.41597 9541 ft 299 kts 41°
2026-05-06 19:22 20.14259 85.43087 9219 ft 297 kts 41°
2026-05-06 19:23 20.15774 85.44578 8908 ft 295 kts 41°
2026-05-06 19:23 20.17281 85.46059 8594 ft 294 kts 41°
2026-05-06 19:23 20.18773 85.47528 8170 ft 291 kts 41°
2026-05-06 19:23 20.20254 85.48987 7711 ft 290 kts 42°
2026-05-06 19:24 20.21730 85.50441 7274 ft 288 kts 42°
2026-05-06 19:24 20.23194 85.51880 6827 ft 286 kts 42°
2026-05-06 19:24 20.24630 85.53293 6412 ft 284 kts 42°
2026-05-06 19:24 20.26095 85.54737 5964 ft 282 kts 42°
2026-05-06 19:25 20.27514 85.56136 5658 ft 282 kts 42°
2026-05-06 19:25 20.28974 85.57572 5337 ft 281 kts 42°
2026-05-06 19:25 20.30384 85.58961 5031 ft 280 kts 42°
2026-05-06 19:25 20.31812 85.60367 4745 ft 279 kts 42°
2026-05-06 19:26 20.33252 85.61785 4438 ft 278 kts 43°
2026-05-06 19:26 20.34651 85.63162 4143 ft 277 kts 42°
2026-05-06 19:26 20.36032 85.64526 4011 ft 265 kts 43°
2026-05-06 19:26 20.37355 85.65836 3756 ft 256 kts 43°
2026-05-06 19:27 20.38631 85.67154 3376 ft 253 kts 51°
2026-05-06 19:27 20.39270 85.68869 2997 ft 248 kts 91°
2026-05-06 19:27 20.38805 85.70558 2598 ft 241 kts 130°
2026-05-06 19:27 20.37576 85.71725 2129 ft 237 kts 146°
2026-05-06 19:28 20.36241 85.72730 1997 ft 235 kts 149°
2026-05-06 19:28 20.34929 85.73675 1999 ft 220 kts 148°
2026-05-06 19:28 20.33721 85.74594 1995 ft 205 kts 148°
2026-05-06 19:28 20.32615 85.75451 1804 ft 192 kts 148°
2026-05-06 19:29 20.31558 85.76269 1468 ft 182 kts 148°
2026-05-06 19:29 20.30579 85.77029 1224 ft 167 kts 148°
2026-05-06 19:29 20.29682 85.77724 998 ft 153 kts 147°
2026-05-06 19:29 20.28845 85.78371 823 ft 147 kts 146°
2026-05-06 19:30 20.28051 85.78985 630 ft 144 kts 146°
2026-05-06 19:30 20.27223 85.79608 457 ft 144 kts 146°
2026-05-06 19:30 20.26450 85.80212 234 ft 132 kts 146°
2026-05-06 19:30 20.25718 85.80786 118 ft 127 kts 145°
2026-05-06 19:31 20.25165 85.81215 123 ft 58 kts 144°
2026-05-06 19:31 20.24869 85.81444 121 ft 51 kts 141°
2026-05-06 19:31 20.24484 85.81737 128 ft 31 kts 144°
2026-05-06 19:32 20.24312 85.81871 133 ft 29 kts 143°
2026-05-06 19:32 20.24201 85.81959 133 ft 17 kts 151°
2026-05-06 19:32 20.24104 85.81991 133 ft 9 kts 164°
2026-05-06 19:32 20.24100 85.82016 133 ft 4 kts 57°
2026-05-06 19:33 20.24128 85.82017 133 ft 5 kts 351°
2026-05-06 19:33 20.24166 85.81993 133 ft 8 kts 323°
2026-05-06 19:33 20.24221 85.81949 133 ft 14 kts 324°
2026-05-06 19:33 20.24324 85.81870 132 ft 23 kts 323°
2026-05-06 19:34 20.24477 85.81751 131 ft 31 kts 323°
2026-05-06 19:34 20.24659 85.81610 126 ft 34 kts 324°
2026-05-06 19:34 20.24852 85.81461 124 ft 32 kts 324°
2026-05-06 19:34 20.25011 85.81339 122 ft 21 kts 324°
2026-05-06 19:35 20.25132 85.81243 120 ft 23 kts 323°
2026-05-06 19:35 20.25210 85.81187 121 ft 6 kts 338°
2026-05-06 19:35 20.25252 85.81207 121 ft 8 kts 47°
2026-05-06 19:35 20.25287 85.81257 122 ft 9 kts 54°
2026-05-06 19:36 20.25327 85.81316 120 ft 10 kts 54°
2026-05-06 19:36 20.25371 85.81382 119 ft 11 kts 54°
2026-05-06 19:36 20.25398 85.81436 119 ft 6 kts 104°
2026-05-06 19:36 20.25371 85.81472 121 ft 7 kts 96°
2026-05-06 19:37 20.25394 85.81519 122 ft 7 kts 65°
2026-05-06 19:37 20.25408 85.81543 122 ft 0 kts 54°